XW7RMR Weather Reports


time (UTC)temp
F
wind
direction
speed
knots
gust
knots
rain 1hr
in
rain 24hr
in
rain mn
in
humidity
%
barometer
mb
20260505153152 55 100 0.9 0.9 0.00 0.00 0.00 86 1015.1
20260505152649 55 46 0.0 0.9 0.00 0.00 0.00 88 1014.9
20260505152144 54 60 0.0 0.0 0.00 0.00 0.00 89 1015.1
20260505151640 54 187 2.6 2.6 0.00 0.00 0.00 89 1015.0
20260505151137 54 76 0.0 0.0 0.00 0.00 0.00 90 1015.0
20260505150633 53 137 1.7 1.7 0.00 0.00 0.00 90 1014.8
20260505150131 53 192 1.7 1.7 0.00 0.00 0.00 90 1014.8
20260505140559 53 153 0.9 0.9 0.00 0.00 0.00 91 1014.5
20260505125012 52 73 0.0 0.0 0.00 0.00 0.00 91 1014.1
20260505124509 52 80 0.0 0.0 0.00 0.00 0.00 92 1013.9
20260505124006 52 137 0.0 0.9 0.00 0.00 0.00 92 1013.8
20260505123502 52 97 0.0 0.0 0.00 0.00 0.00 92 1014.0
20260505122958 52 116 0.9 0.9 0.00 0.00 0.00 92 1013.8
20260505122455 52 144 0.0 0.0 0.00 0.00 0.00 91 1014.0
20260505121952 52 103 0.0 0.0 0.00 0.00 0.00 91 1014.1
20260505121449 52 85 0.0 0.0 0.00 0.00 0.00 91 1014.1
20260505120945 52 99 0.0 0.0 0.00 0.00 0.00 91 1014.1
20260505120442 52 96 0.0 0.0 0.00 0.00 0.00 91 1014.0
20260505115941 52 56 0.0 0.0 0.00 0.00 0.00 91 1014.0
20260505115437 52 82 0.0 0.0 0.00 0.00 0.00 92 1013.9
20260505114935 52 68 0.0 0.0 0.00 0.00 0.00 92 1013.9
20260505114431 52 82 0.0 0.0 0.00 0.00 0.00 93 1013.9
20260505113928 52 83 0.0 0.0 0.00 0.00 0.00 93 1013.9
20260505113424 51 72 0.0 0.0 0.00 0.00 0.00 93 1013.8
20260505112920 51 74 0.0 0.0 0.00 0.00 0.00 94 1013.7
20260505112418 51 47 0.0 0.0 0.00 0.00 0.00 94 1013.8
20260505111914 51 40 0.0 0.0 0.00 0.00 0.00 94 1013.7
20260505111409 51 52 0.0 0.0 0.00 0.00 0.00 94 1013.7
20260505110905 51 50 0.0 0.0 0.00 0.00 0.00 94 1013.7
20260505110402 50 50 0.0 0.0 0.00 0.00 0.00 94 1013.5
20260505101833 49 52 0.0 0.0 0.00 0.00 0.00 95 1013.3
20260505101328 49 73 0.0 0.0 0.00 0.00 0.00 95 1013.2
20260505100824 49 60 0.0 0.0 0.00 0.00 0.00 95 1013.2
20260505100321 49 51 0.0 0.0 0.00 0.00 0.00 95 1013.2
20260505095816 50 53 0.0 0.0 0.00 0.00 0.00 95 1013.2
20260505095314 50 58 0.0 0.0 0.00 0.00 0.00 95 1013.5
20260505094810 50 43 0.0 0.9 0.00 0.00 0.00 95 1013.3
20260505094307 50 67 0.0 0.0 0.00 0.00 0.00 95 1013.3
20260505093802 50 59 0.0 0.0 0.00 0.00 0.00 94 1013.2
20260505093301 50 58 0.0 0.0 0.00 0.00 0.00 94 1013.3
20260505092757 50 70 0.0 0.0 0.00 0.00 0.00 94 1013.2
20260505092256 50 70 0.0 0.0 0.00 0.00 0.00 94 1013.2
20260505091752 50 71 0.0 0.0 0.00 0.00 0.00 93 1013.2
20260505091250 51 72 0.0 0.0 0.00 0.00 0.00 94 1013.2
20260505090748 51 69 0.0 0.0 0.00 0.00 0.00 93 1012.9
20260505090246 51 70 0.0 0.0 0.00 0.00 0.00 93 1013.0
20260505085743 51 108 0.0 0.0 0.00 0.00 0.00 93 1012.9
20260505085241 51 98 0.0 0.0 0.00 0.00 0.00 93 1013.0
20260505084738 51 83 0.0 0.0 0.00 0.00 0.00 93 1013.2
20260505084238 51 82 0.0 0.0 0.00 0.00 0.00 93 1013.0
20260505083734 51 66 0.0 0.0 0.00 0.00 0.00 92 1012.9
20260505083230 51 71 0.0 0.0 0.00 0.00 0.00 92 1013.0
20260505082726 51 75 0.0 0.0 0.00 0.00 0.00 92 1013.1
20260505082224 52 65 0.0 0.0 0.00 0.00 0.00 91 1013.1
20260505081719 52 48 0.0 0.0 0.00 0.00 0.00 91 1012.9
20260505081217 52 64 0.0 0.0 0.00 0.00 0.00 91 1012.7
20260505080714 52 81 0.0 0.0 0.00 0.00 0.00 91 1012.9
20260505080210 52 85 0.0 0.0 0.00 0.00 0.00 90 1012.8
20260505075706 53 53 0.0 0.0 0.00 0.00 0.00 90 1012.7
20260505075203 53 74 0.9 1.7 0.00 0.00 0.00 90 1012.7
20260505074700 53 68 0.0 0.0 0.00 0.00 0.00 89 1012.8
20260505074157 53 351 1.7 1.7 0.00 0.00 0.00 89 1012.6
20260505073655 53 68 0.9 0.9 0.00 0.00 0.00 89 1012.5
20260505073153 53 89 0.0 0.0 0.00 0.00 0.00 88 1012.6
20260505072648 53 167 3.5 3.5 0.00 0.00 0.00 89 1012.6
20260505072145 53 134 0.0 0.0 0.00 0.00 0.00 88 1012.3
20260505071640 53 270 0.0 0.9 0.00 0.00 0.00 88 1012.3
20260505071138 53 180 2.6 2.6 0.00 0.00 0.00 88 1012.3
20260505070635 53 170 0.9 0.9 0.00 0.00 0.00 87 1012.3
20260505070131 53 146 1.7 2.6 0.00 0.00 0.00 88 1012.3
20260505065627 53 164 1.7 1.7 0.00 0.00 0.00 88 1012.2
20260505065124 53 154 0.9 0.9 0.00 0.00 0.00 88 1012.0
20260505064621 53 296 0.9 0.9 0.00 0.00 0.00 88 1012.0
20260505064120 53 129 0.9 1.7 0.00 0.00 0.00 87 1012.0
20260505063617 54 184 1.7 2.6 0.00 0.00 0.00 87 1012.1
20260505063112 54 173 1.7 2.6 0.00 0.00 0.00 87 1011.8
20260505062609 54 200 0.0 0.9 0.00 0.00 0.00 86 1011.9
20260505062106 54 210 0.9 1.7 0.00 0.00 0.00 86 1011.8
20260505061603 54 198 0.9 1.7 0.00 0.00 0.00 86 1011.7
20260505061101 54 191 3.5 6.1 0.00 0.00 0.00 86 1011.8
20260505060559 54 144 0.9 1.7 0.00 0.00 0.00 86 1011.8
20260505060055 55 273 0.9 1.7 0.00 0.00 0.00 85 1011.7
20260505055550 55 127 0.9 2.6 0.00 0.00 0.00 85 1011.6
20260505055048 55 98 0.0 0.9 0.00 0.00 0.00 85 1011.7
20260505054545 55 204 2.6 3.5 0.00 0.00 0.00 84 1011.6
20260505054043 55 143 1.7 3.5 0.00 0.00 0.00 84 1011.6
20260505053539 55 198 2.6 3.5 0.00 0.00 0.00 84 1011.5
20260505053036 55 212 1.7 2.6 0.00 0.00 0.00 84 1011.4
20260505052533 56 172 2.6 3.5 0.00 0.00 0.00 83 1011.5
20260505052031 56 118 1.7 1.7 0.00 0.00 0.00 83 1011.2
20260505051527 56 184 2.6 3.5 0.00 0.00 0.00 83 1011.5
20260505051026 56 160 1.7 2.6 0.00 0.00 0.00 82 1011.3
20260505050524 57 158 2.6 2.6 0.00 0.00 0.00 82 1011.5
20260505041451 59 103 0.9 1.7 0.00 0.00 0.00 78 1010.6
20260505040948 59 139 1.7 2.6 0.00 0.00 0.00 78 1010.5
20260505040446 59 192 1.7 1.7 0.00 0.00 0.00 77 1010.4
20260505035942 60 128 0.9 1.7 0.00 0.00 0.00 77 1010.1
20260505035438 60 164 0.9 1.7 0.00 0.00 0.00 76 1010.1
20260505034936 60 116 0.9 1.7 0.00 0.00 0.00 75 1010.2
20260505034432 60 185 3.5 3.5 0.00 0.00 0.00 75 1010.2
20260505033929 61 85 1.7 2.6 0.00 0.00 0.00 74 1010.0
20260505033426 61 200 0.9 0.9 0.00 0.00 0.00 74 1010.1
20260505032924 62 216 1.7 1.7 0.00 0.00 0.00 73 1009.9
20260505032421 62 168 3.5 5.2 0.00 0.00 0.00 72 1009.9
20260505031918 62 169 0.9 1.7 0.00 0.00 0.00 71 1009.9
20260505031414 63 199 1.7 2.6 0.00 0.00 0.00 71 1009.8
20260505030912 64 222 0.9 0.9 0.00 0.00 0.00 70 1009.8
20260505030407 64 194 0.9 1.7 0.00 0.00 0.00 69 1009.4
20260505025903 65 277 3.5 3.5 0.00 0.00 0.00 68 1009.5
20260505025401 65 168 1.7 2.6 0.00 0.00 0.00 68 1009.6
20260505024859 66 256 2.6 3.5 0.00 0.00 0.00 67 1009.4
20260505024356 67 39 2.6 6.1 0.00 0.00 0.00 66 1009.3
20260505023853 67 174 0.9 0.9 0.00 0.00 0.00 65 1009.3
20260505023350 68 77 2.6 3.5 0.00 0.00 0.00 63 1009.2
20260505022848 69 38 0.0 0.9 0.00 0.00 0.00 63 1009.2
20260505022344 70 257 0.9 1.7 0.00 0.00 0.00 62 1009.3
20260505021842 71 245 1.7 2.6 0.00 0.00 0.00 61 1009.1
20260505021338 71 244 0.9 0.9 0.00 0.00 0.00 60 1009.1
20260505020834 71 200 2.6 3.5 0.00 0.00 0.00 61 1009.1
20260505020330 72 206 3.5 5.2 0.00 0.00 0.00 59 1009.0
20260505015827 73 240 2.6 2.6 0.00 0.00 0.00 58 1009.0
20260505015324 73 204 1.7 2.6 0.00 0.00 0.00 58 1009.1
20260505014821 74 90 1.7 1.7 0.00 0.00 0.00 58 1009.2
20260505014318 73 148 0.9 0.9 0.00 0.00 0.00 58 1009.1
20260505013815 73 229 2.6 5.2 0.00 0.00 0.00 57 1009.2
20260505013312 73 276 1.7 1.7 0.00 0.00 0.00 59 1009.1
20260505012810 73 222 0.9 0.9 0.00 0.00 0.00 59 1009.1
20260505012308 74 250 1.7 2.6 0.00 0.00 0.00 58 1009.2
20260505011803 75 239 3.5 5.2 0.00 0.00 0.00 56 1009.2
20260505011301 74 240 3.5 5.2 0.00 0.00 0.00 57 1009.2
20260505010756 75 233 6.1 7.0 0.00 0.00 0.00 57 1009.3
20260505010252 75 182 3.5 5.2 0.00 0.00 0.00 58 1009.1
20260505005749 75 239 0.9 0.9 0.00 0.00 0.00 58 1009.3
20260505005246 75 214 1.7 2.6 0.00 0.00 0.00 58 1009.2
20260505004743 75 218 0.9 0.9 0.00 0.00 0.00 58 1009.3
20260505004239 77 226 1.7 1.7 0.00 0.00 0.00 55 1009.4
20260505003736 76 148 0.9 0.9 0.00 0.00 0.00 55 1009.4
20260505003234 76 248 4.3 5.2 0.00 0.00 0.00 56 1009.5
20260505002730 76 45 0.9 1.7 0.00 0.00 0.00 56 1009.4
20260505002228 75 149 0.9 1.7 0.00 0.00 0.00 56 1009.4
20260505001725 76 182 1.7 2.6 0.00 0.00 0.00 56 1009.4
20260505001223 76 126 0.9 0.9 0.00 0.00 0.00 57 1009.4
20260505000719 74 272 2.6 3.5 0.00 0.00 0.00 59 1009.3
20260505000218 75 175 2.6 3.5 0.00 0.00 0.00 57 1009.6
20260504235714 75 299 1.7 2.6 0.00 0.00 0.00 58 1009.6
20260504235210 75 162 2.6 5.2 0.00 0.00 0.00 58 1009.6
20260504234707 75 200 0.9 0.9 0.00 0.00 0.00 58 1009.6
20260504234204 73 333 0.9 0.9 0.00 0.00 0.00 60 1009.7
20260504233700 74 116 1.7 2.6 0.00 0.00 0.00 60 1009.9
20260504233156 74 104 2.6 5.2 0.00 0.00 0.00 58 1009.9
20260504232654 77 343 0.9 1.7 0.00 0.00 0.00 55 1009.9
20260504232151 75 211 0.9 1.7 0.00 0.00 0.00 58 1009.9
20260504231647 74 191 3.5 5.2 0.00 0.00 0.00 58 1010.0
20260504231144 75 207 5.2 7.0 0.00 0.00 0.00 57 1009.9
20260504230640 75 141 2.6 2.6 0.00 0.00 0.00 57 1010.0
20260504230139 75 262 1.7 1.7 0.00 0.00 0.00 56 1010.3
20260504225637 73 108 0.9 1.7 0.00 0.00 0.00 60 1010.2
20260504225132 73 194 2.6 3.5 0.00 0.00 0.00 60 1010.1
20260504224630 73 134 1.7 2.6 0.00 0.00 0.00 60 1010.3
20260504224126 74 271 0.0 0.9 0.00 0.00 0.00 58 1010.3
20260504223623 73 110 0.9 0.9 0.00 0.00 0.00 60 1010.3
20260504223119 72 146 1.7 2.6 0.00 0.00 0.00 61 1010.4
20260504222616 72 160 2.6 2.6 0.00 0.00 0.00 60 1010.5
20260504222114 73 159 3.5 3.5 0.00 0.00 0.00 59 1010.6
20260504221611 72 209 1.7 2.6 0.00 0.00 0.00 61 1010.6
20260504221108 71 221 2.6 3.5 0.00 0.00 0.00 61 1010.6
20260504220604 72 123 2.6 2.6 0.00 0.00 0.00 60 1010.5
20260504215557 71 175 3.5 3.5 0.00 0.00 0.00 60 1010.7
20260504215055 71 219 3.5 5.2 0.00 0.00 0.00 61 1010.8
20260504214551 70 199 3.5 5.2 0.00 0.00 0.00 63 1011.0
20260504214047 69 83 1.7 1.7 0.00 0.00 0.00 65 1010.9
20260504213544 72 58 0.9 1.7 0.00 0.00 0.00 60 1011.0
20260504213041 70 256 1.7 2.6 0.00 0.00 0.00 63 1010.9
20260504212537 69 167 3.5 5.2 0.00 0.00 0.00 64 1011.1
20260504212034 69 145 3.5 3.5 0.00 0.00 0.00 64 1011.1
20260504211531 69 186 0.0 0.9 0.00 0.00 0.00 64 1011.2
20260504211028 71 201 3.5 3.5 0.00 0.00 0.00 60 1011.4
20260504210525 69 70 0.9 0.9 0.00 0.00 0.00 62 1011.3
20260504210022 68 175 2.6 2.6 0.00 0.00 0.00 64 1011.6
20260504205520 68 81 3.5 5.2 0.00 0.00 0.00 65 1011.6
20260504205018 68 23 1.7 2.6 0.00 0.00 0.00 66 1011.6
20260504204515 69 195 2.6 2.6 0.00 0.00 0.00 64 1011.6
20260504204014 68 83 1.7 2.6 0.00 0.00 0.00 64 1011.7
20260504203512 68 185 0.9 1.7 0.00 0.00 0.00 63 1011.7
20260504203009 69 124 2.6 3.5 0.00 0.00 0.00 63 1011.9
20260504202504 68 259 2.6 5.2 0.00 0.00 0.00 63 1011.8
20260504202001 68 166 2.6 2.6 0.00 0.00 0.00 64 1012.0
20260504201458 68 274 1.7 2.6 0.00 0.00 0.00 65 1012.1
20260504200956 65 68 2.6 3.5 0.00 0.00 0.00 68 1012.0
20260504200452 66 152 2.6 3.5 0.00 0.00 0.00 68 1012.2
20260504195949 65 62 2.6 3.5 0.00 0.00 0.00 69 1012.2
20260504195445 66 185 3.5 6.1 0.00 0.00 0.00 67 1012.1
20260504194942 64 196 1.7 2.6 0.00 0.00 0.00 70 1012.1
20260504194438 66 118 4.3 5.2 0.00 0.00 0.00 69 1012.0
20260504193934 66 160 2.6 3.5 0.00 0.00 0.00 64 1012.1
20260504193431 66 201 1.7 2.6 0.00 0.00 0.00 67 1012.2
20260504192930 64 284 1.7 2.6 0.00 0.00 0.00 71 1012.3
20260504192427 63 130 3.5 6.1 0.00 0.00 0.00 72 1012.2
20260504191926 63 78 0.9 0.9 0.00 0.00 0.00 70 1012.5
20260504191423 62 203 3.5 3.5 0.00 0.00 0.00 71 1012.5
20260504190918 63 257 0.9 1.7 0.00 0.00 0.00 68 1012.7
20260504190414 62 87 0.9 1.7 0.00 0.00 0.00 72 1012.7
20260504185911 62 182 0.9 1.7 0.00 0.00 0.00 72 1012.6
20260504185408 61 188 1.7 1.7 0.00 0.00 0.00 74 1012.7
20260504184904 62 214 0.9 0.9 0.00 0.00 0.00 73 1012.6
20260504184400 61 167 1.7 2.6 0.00 0.00 0.00 74 1012.8
20260504183856 61 57 0.0 0.0 0.00 0.00 0.00 74 1012.5
20260504183354 61 199 2.6 6.1 0.00 0.00 0.00 75 1012.8
20260504182851 60 263 1.7 3.5 0.00 0.00 0.00 76 1012.8
20260504182348 60 288 0.9 1.7 0.00 0.00 0.00 75 1012.8
20260504181845 60 278 1.7 2.6 0.00 0.00 0.00 77 1012.9
20260504181343 59 302 0.0 0.9 0.00 0.00 0.00 78 1012.8
20260504180841 59 243 0.9 1.7 0.00 0.00 0.00 79 1012.7
20260504180339 59 269 2.6 2.6 0.00 0.00 0.00 77 1012.8
20260504175837 59 182 0.9 1.7 0.00 0.00 0.00 79 1012.7
20260504175333 58 112 0.9 1.7 0.00 0.00 0.00 79 1012.7
20260504174832 59 181 1.7 3.5 0.00 0.00 0.00 77 1012.7
20260504174329 59 190 2.6 3.5 0.00 0.00 0.00 78 1012.8
20260504173826 58 104 0.9 1.7 0.00 0.00 0.00 79 1012.6
20260504173323 59 202 0.9 0.9 0.00 0.00 0.00 78 1012.5
20260504172820 59 265 1.7 2.6 0.00 0.00 0.00 79 1012.7
20260504172316 58 170 0.9 2.6 0.00 0.00 0.00 80 1012.7
20260504171812 58 271 4.3 6.1 0.00 0.00 0.00 79 1012.5
20260504171310 57 282 0.9 1.7 0.00 0.00 0.00 81 1012.6
20260504170807 58 178 2.6 2.6 0.00 0.00 0.00 81 1012.6
20260504170303 57 111 0.9 0.9 0.00 0.00 0.00 82 1012.6
20260504160222 56 127 0.9 1.7 0.00 0.00 0.00 85 1012.3